FW2068 Weather Reports


Display with metric or nautical units.
time (UTC)temp
F
wind
direction
speed
MPH
gust
MPH
rain 1hr
in
rain 24hr
in
rain mn
in
humidity
%
barometer
mb
20260902185113 96 93 1.0 6.0 0.00 0.00 0.00 48 1013.4
20260902184608 96 139 3.0 5.0 0.00 0.00 0.00 47 1013.7
20260902184103 97 164 2.0 5.0 0.00 0.00 0.00 48 1013.5
20260902183600 96 185 1.0 4.0 0.00 0.00 0.00 49 1013.6
20260902183056 97 292 4.0 5.0 0.00 0.00 0.00 48 1013.7
20260902182552 97 287 2.0 2.0 0.00 0.00 0.00 50 1013.9
20260902182048 96 341 4.0 9.0 0.00 0.00 0.00 48 1014.1
20260902181544 95 326 4.0 6.0 0.00 0.00 0.00 49 1014.0
20260902181043 95 283 4.0 4.0 0.00 0.00 0.00 49 1014.2
20260902180538 95 255 0.0 4.0 0.00 0.00 0.00 50 1014.4
20260902180034 95 194 0.0 3.0 0.00 0.00 0.00 50 1014.4
20260902175533 96 106 4.0 7.0 0.00 0.00 0.00 47 1014.6
20260902175030 96 210 2.0 5.0 0.00 0.00 0.00 50 1014.7
20260902174526 96 321 0.0 2.0 0.00 0.00 0.00 48 1014.7
20260902174021 97 91 5.0 6.0 0.00 0.00 0.00 46 1014.9
20260902173521 96 260 1.0 2.0 0.00 0.00 0.00 50 1014.9
20260902173021 96 132 3.0 5.0 0.00 0.00 0.00 48 1015.0
20260902172521 96 114 0.0 4.0 0.00 0.00 0.00 49 1015.2
20260902172016 95 110 8.0 9.0 0.00 0.00 0.00 49 1015.3
20260902171511 95 269 2.0 4.0 0.00 0.00 0.00 51 1015.4
20260902171008 95 69 2.0 5.0 0.00 0.00 0.00 50 1015.4
20260902170502 95 127 1.0 4.0 0.00 0.00 0.00 51 1015.5
20260902165958 95 139 4.0 6.0 0.00 0.00 0.00 52 1015.5
20260902165457 94 238 0.0 5.0 0.00 0.00 0.00 54 1015.6
20260902164952 94 299 3.0 4.0 0.00 0.00 0.00 52 1015.6
20260902164447 93 111 3.0 6.0 0.00 0.00 0.00 56 1015.6
20260902163946 94 163 2.0 2.0 0.00 0.00 0.00 54 1015.8
20260902163441 93 279 1.0 3.0 0.00 0.00 0.00 55 1015.8
20260902162939 91 185 2.0 4.0 0.00 0.00 0.00 57 1016.1
20260902162435 91 148 4.0 10.0 0.00 0.00 0.00 57 1015.9
20260902161934 93 115 3.0 5.0 0.00 0.00 0.00 54 1016.1
20260902161430 92 130 2.0 3.0 0.00 0.00 0.00 55 1015.9
20260902160926 91 306 1.0 4.0 0.00 0.00 0.00 56 1016.1
20260902160421 93 92 4.0 4.0 0.00 0.00 0.00 54 1016.1
20260902155919 91 333 0.0 2.0 0.00 0.00 0.00 58 1016.1
20260902155414 91 134 2.0 4.0 0.00 0.00 0.00 57 1016.0
20260902154908 92 108 1.0 3.0 0.00 0.00 0.00 58 1016.0
20260902154404 90 17 2.0 5.0 0.00 0.00 0.00 61 1016.0
20260902153903 89 320 3.0 4.0 0.00 0.00 0.00 64 1016.1
20260902153402 91 263 1.0 2.0 0.00 0.00 0.00 60 1016.2
20260902152858 89 145 2.0 5.0 0.00 0.00 0.00 62 1016.0
20260902152354 89 82 2.0 4.0 0.00 0.00 0.00 62 1016.2
20260902151849 88 168 0.0 3.0 0.00 0.00 0.00 63 1016.1
20260902151344 88 149 5.0 6.0 0.00 0.00 0.00 64 1016.1
20260902150838 89 157 5.0 6.0 0.00 0.00 0.00 63 1016.1
20260902150335 88 171 1.0 3.0 0.00 0.00 0.00 64 1016.0
20260902145834 88 123 2.0 5.0 0.00 0.00 0.00 64 1016.2
20260902145330 88 341 0.0 2.0 0.00 0.00 0.00 64 1016.0
20260902144825 87 164 4.0 4.0 0.00 0.00 0.00 66 1016.1
20260902144321 85 174 2.0 4.0 0.00 0.00 0.00 70 1015.9
20260902143816 85 166 2.0 6.0 0.00 0.00 0.00 71 1016.0
20260902143310 85 161 4.0 4.0 0.00 0.00 0.00 69 1016.0
20260902142807 85 137 1.0 4.0 0.00 0.00 0.00 69 1016.1
20260902142305 84 123 3.0 6.0 0.00 0.00 0.00 71 1015.9
20260902141802 84 122 2.0 5.0 0.00 0.00 0.00 71 1016.1
20260902141258 85 110 2.0 4.0 0.00 0.00 0.00 71 1016.0
20260902140752 84 113 2.0 6.0 0.00 0.00 0.00 71 1015.9
20260902140247 84 155 2.0 4.0 0.00 0.00 0.00 71 1015.8
20260902135746 83 157 6.0 9.0 0.00 0.00 0.00 73 1015.9
20260902135243 83 98 3.0 5.0 0.00 0.00 0.00 73 1015.8
20260902134742 83 141 3.0 7.0 0.00 0.00 0.00 73 1015.9
20260902134237 83 105 4.0 5.0 0.00 0.00 0.00 73 1015.8
20260902133733 83 122 2.0 6.0 0.00 0.00 0.00 72 1015.7
20260902133232 83 118 3.0 4.0 0.00 0.00 0.00 72 1015.8
20260902132727 83 115 1.0 3.0 0.00 0.00 0.00 72 1015.8
20260902132223 83 91 4.0 4.0 0.00 0.00 0.00 71 1016.0
20260902131718 83 121 1.0 4.0 0.00 0.00 0.00 71 1015.7
20260902131214 82 75 2.0 3.0 0.00 0.00 0.00 72 1015.9
20260902130709 82 144 2.0 3.0 0.00 0.00 0.00 72 1015.9
20260902130205 81 98 2.0 4.0 0.00 0.00 0.00 74 1015.9
20260902125705 80 121 1.0 3.0 0.00 0.00 0.00 76 1015.8
20260902125201 78 81 2.0 2.0 0.00 0.00 0.00 79 1015.9
20260902124658 78 75 0.0 2.0 0.00 0.00 0.00 80 1015.9
20260902124157 77 36 0.0 2.0 0.00 0.00 0.00 81 1015.7
20260902123653 77 333 0.0 1.0 0.00 0.00 0.00 81 1015.6
20260902123148 77 101 0.0 2.0 0.00 0.00 0.00 81 1015.8
20260902122642 77 185 0.0 2.0 0.00 0.00 0.00 81 1015.9
20260902122139 77 89 2.0 2.0 0.00 0.00 0.00 81 1015.7
20260902121638 77 83 1.0 2.0 0.00 0.00 0.00 82 1015.8
20260902121133 77 95 2.0 3.0 0.00 0.00 0.00 82 1015.7
20260902120629 77 89 0.0 2.0 0.00 0.00 0.00 82 1015.7
20260902120126 77 106 2.0 3.0 0.00 0.00 0.00 82 1015.6
20260902115620 77 119 3.0 3.0 0.00 0.00 0.00 83 1015.7
20260902115116 76 118 2.0 2.0 0.00 0.00 0.00 83 1015.6
20260902114612 76 132 1.0 2.0 0.00 0.00 0.00 83 1015.6
20260902114111 77 15 0.0 0.0 0.00 0.00 0.00 82 1015.4
20260902113607 77 144 0.0 1.0 0.00 0.00 0.00 81 1015.3
20260902113102 77 61 1.0 2.0 0.00 0.00 0.00 81 1015.6
20260902112557 77 47 0.0 2.0 0.00 0.00 0.00 81 1015.6
20260902112054 77 112 2.0 3.0 0.00 0.00 0.00 81 1015.3
20260902111550 77 140 0.0 2.0 0.00 0.00 0.00 81 1015.7
20260902111045 78 134 0.0 2.0 0.00 0.00 0.00 81 1015.6
20260902110541 78 127 0.0 2.0 0.00 0.00 0.00 80 1015.6
20260902110037 78 80 1.0 2.0 0.00 0.00 0.00 80 1015.6
20260902105532 78 116 1.0 2.0 0.00 0.00 0.00 80 1015.7
20260902105031 78 130 0.0 2.0 0.00 0.00 0.00 81 1015.6
20260902104527 78 89 0.0 1.0 0.00 0.00 0.00 81 1015.5
20260902104021 78 147 0.0 1.0 0.00 0.00 0.00 81 1015.5
20260902103517 78 129 0.0 0.0 0.00 0.00 0.00 81 1015.5
20260902103012 78 103 0.0 1.0 0.00 0.00 0.00 81 1015.2
20260902102508 78 117 0.0 0.0 0.00 0.00 0.00 80 1015.5
20260902102005 78 75 0.0 0.0 0.00 0.00 0.00 80 1015.4
20260902101500 78 50 0.0 0.0 0.00 0.00 0.00 80 1015.6
20260902100959 78 322 0.0 1.0 0.00 0.00 0.00 81 1015.3
20260902100454 77 15 0.0 0.0 0.00 0.00 0.00 81 1015.4
20260902095953 77 89 0.0 0.0 0.00 0.00 0.00 81 1015.3
20260902095448 78 89 0.0 0.0 0.00 0.00 0.00 81 1015.4
20260902094947 78 89 0.0 0.0 0.00 0.00 0.00 81 1015.3
20260902094444 78 89 0.0 0.0 0.00 0.00 0.00 80 1015.2
20260902093943 78 89 0.0 0.0 0.00 0.00 0.00 80 1015.0
20260902093438 78 37 0.0 0.0 0.00 0.00 0.00 79 1015.1
20260902092937 78 104 0.0 0.0 0.00 0.00 0.00 78 1015.2
20260902092433 79 104 0.0 0.0 0.00 0.00 0.00 78 1015.2
20260902091933 79 124 0.0 1.0 0.00 0.00 0.00 78 1015.4
20260902091428 79 104 0.0 1.0 0.00 0.00 0.00 78 1015.1
20260902090926 79 22 0.0 0.0 0.00 0.00 0.00 77 1015.3
20260902090425 79 113 0.0 0.0 0.00 0.00 0.00 76 1015.1
20260902085924 80 117 0.0 0.0 0.00 0.00 0.00 76 1015.1
20260902085420 80 108 0.0 1.0 0.00 0.00 0.00 76 1015.1
20260902084915 80 137 0.0 1.0 0.00 0.00 0.00 76 1015.1
20260902084412 80 101 1.0 1.0 0.00 0.00 0.00 75 1015.0
20260902083907 80 107 0.0 2.0 0.00 0.00 0.00 75 1015.0
20260902083406 80 132 0.0 2.0 0.00 0.00 0.00 75 1015.0
20260902082901 80 89 0.0 1.0 0.00 0.00 0.00 75 1015.1
20260902082357 80 333 0.0 0.0 0.00 0.00 0.00 75 1015.0
20260902081854 80 89 0.0 0.0 0.00 0.00 0.00 74 1015.1
20260902081349 81 89 0.0 0.0 0.00 0.00 0.00 73 1014.8
20260902080844 81 62 0.0 0.0 0.00 0.00 0.00 72 1014.9
20260902080341 81 140 1.0 2.0 0.00 0.00 0.00 72 1014.8
20260902075840 81 99 0.0 2.0 0.00 0.00 0.00 72 1015.0
20260902075336 81 129 0.0 1.0 0.00 0.00 0.00 73 1015.0
20260902074831 81 173 0.0 2.0 0.00 0.00 0.00 73 1015.1
20260902074327 81 142 0.0 1.0 0.00 0.00 0.00 72 1015.0
20260902073827 82 154 0.0 2.0 0.00 0.00 0.00 72 1015.0
20260902073324 82 133 0.0 1.0 0.00 0.00 0.00 72 1015.1
20260902072820 81 126 0.0 1.0 0.00 0.00 0.00 73 1015.2
20260902072315 81 117 0.0 0.0 0.00 0.00 0.00 73 1015.3
20260902071811 81 284 0.0 0.0 0.00 0.00 0.00 74 1015.0
20260902071306 81 284 0.0 0.0 0.00 0.00 0.00 74 1015.1
20260902070802 81 284 0.0 0.0 0.00 0.00 0.00 73 1015.2
20260902070302 81 283 0.0 1.0 0.00 0.00 0.00 73 1015.2
20260902065801 81 224 0.0 0.0 0.00 0.00 0.00 73 1015.3
20260902065256 81 205 0.0 0.0 0.00 0.00 0.00 73 1015.3
20260902064752 82 104 0.0 1.0 0.00 0.00 0.00 73 1015.3
20260902064248 82 140 0.0 1.0 0.00 0.00 0.00 73 1015.2
20260902063743 82 105 0.0 2.0 0.00 0.00 0.00 72 1015.0
20260902063237 82 136 0.0 3.0 0.00 0.00 0.00 71 1015.2
20260902062737 82 143 3.0 4.0 0.00 0.00 0.00 71 1015.4
20260902062232 82 159 2.0 4.0 0.00 0.00 0.00 71 1015.2
20260902061731 82 143 2.0 4.0 0.00 0.00 0.00 71 1015.2
20260902061227 83 143 3.0 5.0 0.00 0.00 0.00 71 1015.1
20260902060724 83 150 2.0 4.0 0.00 0.00 0.00 70 1015.1
20260902060219 83 144 3.0 4.0 0.00 0.00 0.00 70 1015.3
20260902055714 83 146 2.0 5.0 0.00 0.00 0.00 70 1015.2
20260902055210 83 157 4.0 7.0 0.00 0.00 0.00 70 1015.3
20260902054705 83 154 5.0 6.0 0.00 0.00 0.00 70 1015.1
20260902054201 83 150 5.0 6.0 0.00 0.00 0.00 70 1015.0
20260902053656 83 148 3.0 4.0 0.00 0.00 0.00 71 1015.0
20260902053150 83 134 2.0 5.0 0.00 0.00 0.00 70 1015.2
20260902051214 84 153 2.0 5.0 0.00 0.00 0.00 70 1015.1
20260902050709 84 153 2.0 5.0 0.00 0.00 0.00 70 1015.1
20260902050205 84 160 4.0 6.0 0.00 0.00 0.00 68 1015.0
20260902045704 84 157 3.0 5.0 0.00 0.00 0.00 69 1015.1
20260902045200 84 155 3.0 6.0 0.00 0.00 0.00 68 1015.0
20260902044655 85 162 5.0 6.0 0.00 0.00 0.00 68 1015.2
20260902044151 85 151 5.0 7.0 0.00 0.00 0.00 68 1015.1
20260902043647 85 155 4.0 6.0 0.00 0.00 0.00 68 1015.2
20260902043142 85 140 2.0 6.0 0.00 0.00 0.00 68 1015.1
20260902042641 85 142 3.0 7.0 0.00 0.00 0.00 67 1015.0
20260902042137 85 143 5.0 8.0 0.00 0.00 0.00 66 1015.0
20260902041636 85 155 4.0 8.0 0.00 0.00 0.00 66 1014.9
20260902041131 86 156 6.0 9.0 0.00 0.00 0.00 65 1015.1
20260902040631 86 149 4.0 7.0 0.00 0.00 0.00 65 1014.9
20260902040126 86 164 7.0 9.0 0.00 0.00 0.00 64 1014.8
20260902035624 86 165 6.0 11.0 0.00 0.00 0.00 64 1015.0
20260902035120 86 158 7.0 10.0 0.00 0.00 0.00 63 1015.0
20260902034619 87 152 6.0 9.0 0.00 0.00 0.00 63 1015.0
20260902034118 87 172 5.0 9.0 0.00 0.00 0.00 62 1015.0
20260902033618 87 159 7.0 11.0 0.00 0.00 0.00 61 1015.1
20260902033113 87 154 8.0 11.0 0.00 0.00 0.00 61 1014.8
20260902032611 87 139 10.0 11.0 0.00 0.00 0.00 60 1014.9
20260902032107 88 130 6.0 11.0 0.00 0.00 0.00 59 1014.6
20260902031607 88 145 6.0 11.0 0.00 0.00 0.00 59 1014.7
20260902031103 89 139 12.0 14.0 0.00 0.00 0.00 57 1014.5
20260902030558 88 140 5.0 11.0 0.00 0.00 0.00 57 1014.6
20260902030057 89 110 2.0 4.0 0.00 0.00 0.00 57 1014.3
20260902025551 89 112 1.0 2.0 0.00 0.00 0.00 56 1014.0
20260902025047 89 122 1.0 1.0 0.00 0.00 0.00 56 1014.0
20260902024542 89 124 0.0 1.0 0.00 0.00 0.00 55 1013.9
20260902024042 90 126 1.0 1.0 0.00 0.00 0.00 55 1013.9
20260902023538 90 106 1.0 2.0 0.00 0.00 0.00 54 1013.5
20260902023033 90 84 0.0 2.0 0.00 0.00 0.00 54 1013.5
20260902022533 91 135 0.0 2.0 0.00 0.00 0.00 53 1013.4
20260902022029 91 107 0.0 2.0 0.00 0.00 0.00 54 1013.4
20260902021524 90 128 2.0 2.0 0.00 0.00 0.00 53 1013.3
20260902021019 90 128 0.0 2.0 0.00 0.00 0.00 54 1013.4
20260902020515 90 136 0.0 3.0 0.00 0.00 0.00 53 1013.3
20260902020011 90 110 1.0 3.0 0.00 0.00 0.00 53 1013.3
20260902015506 90 131 2.0 3.0 0.00 0.00 0.00 54 1013.2
20260902015001 91 141 2.0 2.0 0.00 0.00 0.00 53 1013.1
20260902014458 90 89 2.0 3.0 0.00 0.00 0.00 53 1013.1
20260902013958 90 115 2.0 3.0 0.00 0.00 0.00 53 1013.1
20260902013453 90 158 4.0 4.0 0.00 0.00 0.00 54 1012.9
20260902012948 91 129 2.0 3.0 0.00 0.00 0.00 52 1012.9
20260902012443 91 106 2.0 3.0 0.00 0.00 0.00 51 1012.9
20260902011939 92 89 0.0 2.0 0.00 0.00 0.00 50 1012.7
20260902011434 92 108 1.0 2.0 0.00 0.00 0.00 50 1012.7
20260902010933 92 89 1.0 2.0 0.00 0.00 0.00 50 1012.6
20260902010428 92 99 1.0 2.0 0.00 0.00 0.00 50 1012.7
20260902005927 92 111 1.0 2.0 0.00 0.00 0.00 50 1012.6
20260902005421 92 114 0.0 1.0 0.00 0.00 0.00 50 1012.6
20260902004918 92 154 0.0 1.0 0.00 0.00 0.00 50 1012.6
20260902004417 93 22 0.0 2.0 0.00 0.00 0.00 49 1012.7
20260902003913 93 135 2.0 4.0 0.00 0.00 0.00 50 1012.6
20260902003412 92 349 1.0 2.0 0.00 0.00 0.00 51 1012.7
20260902002909 92 232 2.0 4.0 0.00 0.00 0.00 50 1012.6
20260902002408 93 47 5.0 5.0 0.00 0.00 0.00 49 1012.6
20260902001903 96 109 0.0 8.0 0.00 0.00 0.00 47 1012.8
20260902001358 96 117 4.0 4.0 0.00 0.00 0.00 45 1012.7
20260902000848 96 127 1.0 2.0 0.00 0.00 0.00 44 1012.7
20260902000348 96 129 0.0 1.0 0.00 0.00 0.00 45 1012.8
20260901235843 96 139 0.0 1.0 0.00 0.00 0.00 46 1012.7
20260901235342 96 118 0.0 1.0 0.00 0.00 0.00 45 1012.8
20260901234838 96 141 0.0 2.0 0.00 0.00 0.00 45 1012.8
20260901234331 96 135 0.0 0.0 0.00 0.00 0.00 45 1012.8
20260901233827 96 143 2.0 2.0 0.00 0.00 0.00 45 1012.5
20260901233322 96 132 2.0 2.0 0.00 0.00 0.00 45 1012.8
20260901232818 96 129 0.0 3.0 0.00 0.00 0.00 45 1012.8
20260901232313 96 180 0.0 2.0 0.00 0.00 0.00 45 1012.9
20260901231809 96 118 2.0 4.0 0.00 0.00 0.00 44 1013.0
20260901231305 96 116 0.0 2.0 0.00 0.00 0.00 45 1012.9
20260901230801 96 82 2.0 3.0 0.00 0.00 0.00 44 1013.1
20260901230300 96 117 2.0 4.0 0.00 0.00 0.00 44 1012.9
20260901225756 97 101 3.0 3.0 0.00 0.00 0.00 43 1013.1
20260901225250 96 103 0.0 3.0 0.00 0.00 0.00 44 1013.1
20260901224746 96 148 3.0 5.0 0.00 0.00 0.00 46 1012.9
20260901224242 97 147 3.0 4.0 0.00 0.00 0.00 46 1013.0
20260901223738 97 128 4.0 5.0 0.00 0.00 0.00 43 1013.0
20260901223238 98 349 0.0 2.0 0.00 0.00 0.00 44 1013.0
20260901222734 97 308 1.0 2.0 0.00 0.00 0.00 44 1013.1
20260901222230 97 135 3.0 4.0 0.00 0.00 0.00 44 1013.2
20260901221726 96 149 1.0 3.0 0.00 0.00 0.00 45 1013.3
20260901221221 97 125 3.0 5.0 0.00 0.00 0.00 45 1013.1
20260901220720 97 150 2.0 6.0 0.00 0.00 0.00 45 1013.2
20260901220215 97 133 2.0 5.0 0.00 0.00 0.00 45 1013.2
20260901215713 97 129 1.0 6.0 0.00 0.00 0.00 45 1013.5
20260901215208 98 134 1.0 5.0 0.00 0.00 0.00 42 1013.2
20260901214706 101 108 2.0 3.0 0.00 0.00 0.00 41 1013.4
20260901214201 98 145 2.0 5.0 0.00 0.00 0.00 43 1013.5
20260901213701 97 118 4.0 4.0 0.00 0.00 0.00 44 1013.5
20260901213201 97 130 2.0 4.0 0.00 0.00 0.00 44 1013.5
20260901212700 97 131 1.0 6.0 0.00 0.00 0.00 44 1013.4
20260901212157 97 142 1.0 3.0 0.00 0.00 0.00 44 1013.6
20260901211656 97 174 3.0 4.0 0.00 0.00 0.00 44 1013.6
20260901211153 97 131 3.0 4.0 0.00 0.00 0.00 43 1013.5
20260901210648 97 134 2.0 7.0 0.00 0.00 0.00 44 1013.7
20260901210144 97 100 4.0 7.0 0.00 0.00 0.00 43 1013.9
20260901205640 97 118 1.0 8.0 0.00 0.00 0.00 44 1014.0
20260901205139 97 130 3.0 6.0 0.00 0.00 0.00 44 1013.9
20260901204635 97 140 2.0 3.0 0.00 0.00 0.00 44 1014.0
20260901204130 96 140 2.0 6.0 0.00 0.00 0.00 45 1013.9
20260901203626 97 186 0.0 1.0 0.00 0.00 0.00 43 1014.0
20260901203126 97 104 1.0 3.0 0.00 0.00 0.00 44 1014.1
20260901202625 97 120 1.0 4.0 0.00 0.00 0.00 44 1014.1
20260901202121 98 115 2.0 3.0 0.00 0.00 0.00 43 1014.2
20260901201617 97 136 3.0 7.0 0.00 0.00 0.00 44 1014.1
20260901201116 99 166 3.0 4.0 0.00 0.00 0.00 44 1014.0
20260901200616 98 176 3.0 5.0 0.00 0.00 0.00 43 1014.3
20260901200111 99 144 6.0 7.0 0.00 0.00 0.00 42 1014.4
20260901195609 100 254 3.0 4.0 0.00 0.00 0.00 41 1014.4
20260901195108 100 307 0.0 2.0 0.00 0.00 0.00 43 1014.3
20260901194604 98 269 0.0 4.0 0.00 0.00 0.00 44 1014.4
20260901194059 99 276 1.0 4.0 0.00 0.00 0.00 44 1014.5
20260901193554 98 230 2.0 4.0 0.00 0.00 0.00 48 1014.8
20260901193049 97 269 0.0 2.0 0.00 0.00 0.00 46 1014.7
20260901192544 96 138 1.0 3.0 0.00 0.00 0.00 46 1014.6
20260901192039 97 147 0.0 2.0 0.00 0.00 0.00 46 1014.7
20260901191535 96 81 0.0 4.0 0.00 0.00 0.00 46 1014.9
20260901191031 97 124 0.0 2.0 0.00 0.00 0.00 44 1014.9
20260901190527 96 339 2.0 3.0 0.00 0.00 0.00 45 1015.1
20260901190026 96 345 0.0 4.0 0.00 0.00 0.00 47 1015.0
20260901185524 97 197 0.0 3.0 0.00 0.00 0.00 46 1015.1